Location: Castelnau
(43.6639°N, 0.8431°W)
Time: 15:34:54
(UTC+00:00)

Cosmos 1023 Rocket - Pass Details

Date: 13 January 2026
Orbit: 731 x 768 km, 74.1° (Epoch: 11 February)

Event Time Altitude Azimuth Distance (km) Brightness Sun altitude
Rises 06:25:32 0° 202° (SSW) 3,141 7.6 -12.3°
Reaches altitude 10° 06:27:52 10° 204° (SSW) 2,225 6.9 -11.9°
Maximum altitude 06:32:54 79° 290° (WNW) 754 4.3 -11.0°
Drops below altitude 10° 06:38:01 10° 18° (NNE) 2,257 6.9 -10.2°
Sets 06:40:24 0° 20° (NNE) 3,190 7.7 -9.8°
